Tracking 19854 objects as of 22-Sep-2019
HD Live streaming from Space Station
objects crossing your sky now

FENGYUN 1C DEB

Track FENGYUN 1C DEB now!
10-day predictions


NORAD ID: 35167
Int'l Code: 1999-025DMX
Perigee: 639.9 km
Apogee: 1,005.5 km
Inclination: 98.6 °
Period: 101.2 minutes
Semi major axis: 7193 km
RCS: 0.0088 m2 (small)
Launch date: May 10, 1999
Source: People's Republic of China (PRC)
Launch site: Taiyaun Space Center, China (TSC)

Note: This is SATELLITE DEBRIS
aabbcc
Your satellite tracking list
Your tracking list is empty




NASA's NSSDC Master Catalog

Two Line Element Set (TLE):
1 35167U 99025DMX 19263.35849790  .00000092  00000-0  44989-4 0  9992
2 35167  98.5558 301.7363 0254080  31.8564 329.7701 14.22904654574421
Source of the keplerian elements: AFSPC